Year,Month,Day,Hour,Minute,Value (Times are PST for windspeed in km/hr)
2022,11,29,00,00,14.40
2022,11,29,00,01,15.00
2022,11,29,00,02,15.30
2022,11,29,00,03,17.90
2022,11,29,00,04,12.00
2022,11,29,00,05,12.30
2022,11,29,00,06,12.90
2022,11,29,00,07,11.20
2022,11,29,00,08,13.70
2022,11,29,00,09,11.30
2022,11,29,00,10,10.90
2022,11,29,00,11,16.20
2022,11,29,00,12,14.30
2022,11,29,00,13,10.40
2022,11,29,00,14,13.20
2022,11,29,00,15,12.20
2022,11,29,00,16,11.00
2022,11,29,00,17,10.70
2022,11,29,00,18,8.50
2022,11,29,00,19,10.20
2022,11,29,00,20,9.40
2022,11,29,00,21,7.30
2022,11,29,00,22,9.50
2022,11,29,00,23,7.00
2022,11,29,00,24,10.40
2022,11,29,00,25,11.10
2022,11,29,00,26,5.90
2022,11,29,00,27,6.00
2022,11,29,00,28,8.30
2022,11,29,00,29,10.30
2022,11,29,00,30,13.70
2022,11,29,00,31,10.80
2022,11,29,00,32,12.00
2022,11,29,00,33,13.20
2022,11,29,00,34,11.90
2022,11,29,00,35,12.00
2022,11,29,00,36,12.30
2022,11,29,00,37,14.00
2022,11,29,00,38,16.40
2022,11,29,00,39,15.30
2022,11,29,00,40,14.20
2022,11,29,00,41,9.20
2022,11,29,00,42,8.20
2022,11,29,00,43,11.70
2022,11,29,00,44,18.40
2022,11,29,00,45,17.20
2022,11,29,00,46,14.60
2022,11,29,00,47,16.10
2022,11,29,00,48,16.20
2022,11,29,00,49,16.40
2022,11,29,00,50,15.50
2022,11,29,00,51,11.30
2022,11,29,00,52,15.50
2022,11,29,00,53,14.70
2022,11,29,00,54,15.50
2022,11,29,00,55,16.80
2022,11,29,00,56,14.50
2022,11,29,00,57,15.50
2022,11,29,00,58,13.40
2022,11,29,00,59,15.50
2022,11,29,01,00,14.80
2022,11,29,01,01,16.80
2022,11,29,01,02,17.20
2022,11,29,01,03,13.10
2022,11,29,01,04,11.70
2022,11,29,01,05,10.20
2022,11,29,01,06,10.40
2022,11,29,01,07,8.40
2022,11,29,01,08,11.10
2022,11,29,01,09,12.30
2022,11,29,01,10,12.60
2022,11,29,01,11,5.80
2022,11,29,01,12,9.00
2022,11,29,01,13,13.30
2022,11,29,01,14,13.00
2022,11,29,01,15,9.50
2022,11,29,01,16,7.60
2022,11,29,01,17,10.80
2022,11,29,01,18,11.70
2022,11,29,01,19,7.10
2022,11,29,01,20,10.90
2022,11,29,01,21,7.50
2022,11,29,01,22,5.90
2022,11,29,01,23,10.90
2022,11,29,01,24,12.80
2022,11,29,01,25,15.00
2022,11,29,01,26,8.50
2022,11,29,01,27,12.60
2022,11,29,01,28,10.70
2022,11,29,01,29,17.50
2022,11,29,01,30,13.90
2022,11,29,01,31,10.60
2022,11,29,01,32,11.40
2022,11,29,01,33,6.50
2022,11,29,01,34,8.90
2022,11,29,01,35,8.30
2022,11,29,01,36,7.90
2022,11,29,01,37,6.90
2022,11,29,01,38,8.40
2022,11,29,01,39,9.80
2022,11,29,01,40,8.10
2022,11,29,01,41,7.40
2022,11,29,01,42,9.10
2022,11,29,01,43,10.00
2022,11,29,01,44,8.90
2022,11,29,01,45,6.80
2022,11,29,01,46,12.80
2022,11,29,01,47,17.00
2022,11,29,01,48,13.80
2022,11,29,01,49,7.90
2022,11,29,01,50,8.70
2022,11,29,01,51,8.50
2022,11,29,01,52,10.00
2022,11,29,01,53,8.20
2022,11,29,01,54,9.20
2022,11,29,01,55,11.50
2022,11,29,01,56,9.70
2022,11,29,01,57,13.10
2022,11,29,01,58,10.40
2022,11,29,01,59,8.70
2022,11,29,02,00,6.60
2022,11,29,02,01,8.90
2022,11,29,02,02,15.00
2022,11,29,02,03,12.00
2022,11,29,02,04,11.20
2022,11,29,02,05,13.10
2022,11,29,02,06,12.10
2022,11,29,02,07,13.20
2022,11,29,02,08,14.10
2022,11,29,02,09,9.40
2022,11,29,02,10,11.80
2022,11,29,02,11,12.00
2022,11,29,02,12,11.90
2022,11,29,02,13,15.70
2022,11,29,02,14,13.00
2022,11,29,02,15,11.30
2022,11,29,02,16,15.10
2022,11,29,02,17,13.20
2022,11,29,02,18,13.10
2022,11,29,02,19,9.40
2022,11,29,02,20,12.90
2022,11,29,02,21,10.50
2022,11,29,02,22,10.30
2022,11,29,02,23,13.20
2022,11,29,02,24,13.60
2022,11,29,02,25,11.80
2022,11,29,02,26,13.40
2022,11,29,02,27,8.00
2022,11,29,02,28,4.50
2022,11,29,02,29,10.20
2022,11,29,02,30,11.80
2022,11,29,02,31,8.90
2022,11,29,02,32,9.30
2022,11,29,02,33,11.40
2022,11,29,02,34,10.10
2022,11,29,02,35,12.70
2022,11,29,02,36,11.40
2022,11,29,02,37,10.70
2022,11,29,02,38,10.20
2022,11,29,02,39,8.50
2022,11,29,02,40,7.40
2022,11,29,02,41,8.80
2022,11,29,02,42,7.90
2022,11,29,02,43,10.80
2022,11,29,02,44,10.00
2022,11,29,02,45,11.50
2022,11,29,02,46,11.00
2022,11,29,02,47,9.10
2022,11,29,02,48,7.30
2022,11,29,02,49,5.60
2022,11,29,02,50,11.50
2022,11,29,02,51,9.60
2022,11,29,02,52,9.80
2022,11,29,02,53,9.10
2022,11,29,02,54,8.50
2022,11,29,02,55,8.70
2022,11,29,02,56,9.90
2022,11,29,02,57,11.40
2022,11,29,02,58,11.70
2022,11,29,02,59,11.90
2022,11,29,03,00,7.20
2022,11,29,03,01,9.40
2022,11,29,03,02,8.80
2022,11,29,03,03,8.90
2022,11,29,03,04,5.80
2022,11,29,03,05,11.40
2022,11,29,03,06,12.20
2022,11,29,03,07,7.70
2022,11,29,03,08,11.00
2022,11,29,03,09,8.90
2022,11,29,03,10,10.20
2022,11,29,03,11,10.10
2022,11,29,03,12,7.90
2022,11,29,03,13,7.90
2022,11,29,03,14,11.30
2022,11,29,03,15,10.40
2022,11,29,03,16,11.00
2022,11,29,03,17,10.20
2022,11,29,03,18,10.20
2022,11,29,03,19,9.40
2022,11,29,03,20,8.60
2022,11,29,03,21,10.70
2022,11,29,03,22,9.30
2022,11,29,03,23,8.30
2022,11,29,03,24,6.60
2022,11,29,03,25,8.00
2022,11,29,03,26,6.90
2022,11,29,03,27,9.80
2022,11,29,03,28,7.90
2022,11,29,03,29,7.70
2022,11,29,03,30,10.10
2022,11,29,03,31,11.70
2022,11,29,03,32,13.60
2022,11,29,03,33,12.70
2022,11,29,03,34,12.30
2022,11,29,03,35,10.70
2022,11,29,03,36,11.40
2022,11,29,03,37,12.90
2022,11,29,03,38,9.40
2022,11,29,03,39,9.10
2022,11,29,03,40,11.10
2022,11,29,03,41,14.10
2022,11,29,03,42,9.20
2022,11,29,03,43,10.70
2022,11,29,03,44,14.90
2022,11,29,03,45,9.80
2022,11,29,03,46,9.40
2022,11,29,03,47,8.30
2022,11,29,03,48,11.40
2022,11,29,03,49,7.10
2022,11,29,03,50,9.10
2022,11,29,03,51,8.10
2022,11,29,03,52,5.10
2022,11,29,03,53,10.50
2022,11,29,03,54,16.40
2022,11,29,03,55,12.90
2022,11,29,03,56,8.60
2022,11,29,03,57,6.50
2022,11,29,03,58,5.00
2022,11,29,03,59,7.00
2022,11,29,04,00,7.50
2022,11,29,04,01,9.30
2022,11,29,04,02,11.80
2022,11,29,04,03,12.60
2022,11,29,04,04,11.10
2022,11,29,04,05,7.20
2022,11,29,04,06,9.50
2022,11,29,04,07,10.90
2022,11,29,04,08,10.30
2022,11,29,04,09,7.00
2022,11,29,04,10,7.80
2022,11,29,04,11,6.10
2022,11,29,04,12,4.40
2022,11,29,04,13,7.00
2022,11,29,04,14,7.20
2022,11,29,04,15,8.70
2022,11,29,04,16,5.10
2022,11,29,04,17,4.60
2022,11,29,04,18,4.40
2022,11,29,04,19,6.90
2022,11,29,04,20,5.50
2022,11,29,04,21,10.80
2022,11,29,04,22,8.50
2022,11,29,04,23,7.50
2022,11,29,04,24,10.70
2022,11,29,04,25,7.50
2022,11,29,04,26,7.90
2022,11,29,04,27,8.70
2022,11,29,04,28,6.90
2022,11,29,04,29,8.70
2022,11,29,04,30,9.40
2022,11,29,04,31,7.70
2022,11,29,04,32,8.80
2022,11,29,04,33,6.00
2022,11,29,04,34,6.40
2022,11,29,04,35,10.90
2022,11,29,04,36,7.20
2022,11,29,04,37,6.00
2022,11,29,04,38,9.10
2022,11,29,04,39,11.00
2022,11,29,04,40,11.10
2022,11,29,04,41,9.30
2022,11,29,04,42,13.70
2022,11,29,04,43,8.50
2022,11,29,04,44,12.40
2022,11,29,04,45,9.30
2022,11,29,04,46,7.90
2022,11,29,04,47,6.10
2022,11,29,04,48,7.10
2022,11,29,04,49,9.40
2022,11,29,04,50,10.70
2022,11,29,04,51,12.20
2022,11,29,04,52,13.40
2022,11,29,04,53,8.30
2022,11,29,04,54,8.70
2022,11,29,04,55,10.00
2022,11,29,04,56,7.10
2022,11,29,04,57,7.40
2022,11,29,04,58,11.90
2022,11,29,04,59,10.40
2022,11,29,05,00,9.20
2022,11,29,05,01,8.10
2022,11,29,05,02,5.90
2022,11,29,05,03,7.50
2022,11,29,05,04,8.20
2022,11,29,05,05,9.50
2022,11,29,05,06,4.90
2022,11,29,05,07,8.60
2022,11,29,05,08,10.90
2022,11,29,05,09,10.10
2022,11,29,05,10,11.00
2022,11,29,05,11,9.80
2022,11,29,05,12,10.40
2022,11,29,05,13,9.40
2022,11,29,05,14,14.80
2022,11,29,05,15,7.60
2022,11,29,05,16,11.40
2022,11,29,05,17,10.00
2022,11,29,05,18,10.10
2022,11,29,05,19,12.00
2022,11,29,05,20,10.00
2022,11,29,05,21,10.40
2022,11,29,05,22,13.60
2022,11,29,05,23,11.50
2022,11,29,05,24,6.30
2022,11,29,05,25,5.80
2022,11,29,05,26,9.30
2022,11,29,05,27,8.90
2022,11,29,05,28,7.90
2022,11,29,05,29,9.20
2022,11,29,05,30,8.00
2022,11,29,05,31,7.30
2022,11,29,05,32,6.80
2022,11,29,05,33,2.90
2022,11,29,05,34,3.60
2022,11,29,05,35,3.20
2022,11,29,05,36,6.60
2022,11,29,05,37,4.80
2022,11,29,05,38,5.40
2022,11,29,05,39,7.00
2022,11,29,05,40,5.50
2022,11,29,05,41,8.80
2022,11,29,05,42,10.30
2022,11,29,05,43,9.10
2022,11,29,05,44,5.90
2022,11,29,05,45,10.70
2022,11,29,05,46,9.10
2022,11,29,05,47,4.70
2022,11,29,05,48,7.10
2022,11,29,05,49,7.50
2022,11,29,05,50,6.10
2022,11,29,05,51,7.50
2022,11,29,05,52,12.60
2022,11,29,05,53,9.60
2022,11,29,05,54,7.90
2022,11,29,05,55,7.80
2022,11,29,05,56,12.20
2022,11,29,05,57,10.60
2022,11,29,05,58,9.80
2022,11,29,05,59,7.80
2022,11,29,06,00,10.10
2022,11,29,06,01,6.20
2022,11,29,06,02,14.30
2022,11,29,06,03,12.70
2022,11,29,06,04,9.70
2022,11,29,06,05,13.10
2022,11,29,06,06,12.30
2022,11,29,06,07,9.40
2022,11,29,06,08,9.60
2022,11,29,06,09,9.00
2022,11,29,06,10,12.90
2022,11,29,06,11,11.10
2022,11,29,06,12,9.40
2022,11,29,06,13,15.40
2022,11,29,06,14,13.90
2022,11,29,06,15,11.90
2022,11,29,06,16,12.80
2022,11,29,06,17,11.90
2022,11,29,06,18,11.40
2022,11,29,06,19,12.40
2022,11,29,06,20,10.70
2022,11,29,06,21,11.80
2022,11,29,06,22,11.80
2022,11,29,06,23,13.10
2022,11,29,06,24,13.20
2022,11,29,06,25,16.80
2022,11,29,06,26,14.00
2022,11,29,06,27,8.90
2022,11,29,06,28,12.20
2022,11,29,06,29,9.70
2022,11,29,06,30,11.00
2022,11,29,06,31,13.60
2022,11,29,06,32,9.70
2022,11,29,06,33,6.60
2022,11,29,06,34,4.90
2022,11,29,06,35,6.70
2022,11,29,06,36,5.10
2022,11,29,06,37,12.90
2022,11,29,06,38,14.70
2022,11,29,06,39,13.80
2022,11,29,06,40,10.70
2022,11,29,06,41,10.10
2022,11,29,06,42,8.10
2022,11,29,06,43,10.30
2022,11,29,06,44,9.70
2022,11,29,06,45,15.10
2022,11,29,06,46,12.00
2022,11,29,06,47,10.00
2022,11,29,06,48,9.40
2022,11,29,06,49,11.70
2022,11,29,06,50,8.10
2022,11,29,06,51,11.20
2022,11,29,06,52,8.80
2022,11,29,06,53,8.40
2022,11,29,06,54,9.20
2022,11,29,06,55,9.60
2022,11,29,06,56,8.40
2022,11,29,06,57,11.10
2022,11,29,06,58,9.40
2022,11,29,06,59,9.00
2022,11,29,07,00,8.70
2022,11,29,07,01,6.60
2022,11,29,07,02,6.70
2022,11,29,07,03,7.70
2022,11,29,07,04,6.80
2022,11,29,07,05,7.60
2022,11,29,07,06,6.30
2022,11,29,07,07,9.10
2022,11,29,07,08,9.20
2022,11,29,07,09,5.50
2022,11,29,07,10,8.10
2022,11,29,07,11,10.00
2022,11,29,07,12,11.00
2022,11,29,07,13,9.80
2022,11,29,07,14,8.80
2022,11,29,07,15,7.00
2022,11,29,07,16,9.40
2022,11,29,07,17,8.90
2022,11,29,07,18,9.00
2022,11,29,07,19,7.70
2022,11,29,07,20,4.80
2022,11,29,07,21,7.00
2022,11,29,07,22,9.80
2022,11,29,07,23,9.00
2022,11,29,07,24,10.20
2022,11,29,07,25,9.30
2022,11,29,07,26,9.70
2022,11,29,07,27,5.90
2022,11,29,07,28,4.50
2022,11,29,07,29,4.50
2022,11,29,07,30,4.20
2022,11,29,07,31,9.10
2022,11,29,07,32,11.30
2022,11,29,07,33,9.10
2022,11,29,07,34,10.30
2022,11,29,07,35,10.30
2022,11,29,07,36,7.30
2022,11,29,07,37,4.90
2022,11,29,07,38,5.80
2022,11,29,07,39,6.30
2022,11,29,07,40,9.50
2022,11,29,07,41,9.70
2022,11,29,07,42,10.50
2022,11,29,07,43,10.40
2022,11,29,07,44,8.70
2022,11,29,07,45,11.70
2022,11,29,07,46,8.50
2022,11,29,07,47,13.30
2022,11,29,07,48,9.70
2022,11,29,07,49,7.80
2022,11,29,07,50,10.30
2022,11,29,07,51,8.00
2022,11,29,07,52,10.40
2022,11,29,07,53,11.30
2022,11,29,07,54,5.70
2022,11,29,07,55,7.80
2022,11,29,07,56,7.70
2022,11,29,07,57,5.50
2022,11,29,07,58,7.40
2022,11,29,07,59,7.90
2022,11,29,08,00,3.90
2022,11,29,08,01,5.50
2022,11,29,08,02,5.40
2022,11,29,08,03,5.50
2022,11,29,08,04,6.80
2022,11,29,08,05,6.10
2022,11,29,08,06,5.20
2022,11,29,08,07,7.00
2022,11,29,08,08,8.30
2022,11,29,08,09,9.70
2022,11,29,08,10,8.90
2022,11,29,08,11,7.50
2022,11,29,08,12,8.90
2022,11,29,08,13,12.00
2022,11,29,08,14,11.20
2022,11,29,08,15,12.30
2022,11,29,08,16,5.10
2022,11,29,08,17,5.10
2022,11,29,08,18,7.90
2022,11,29,08,19,9.80
2022,11,29,08,20,9.60
2022,11,29,08,21,8.10
2022,11,29,08,22,6.70
2022,11,29,08,23,5.70
2022,11,29,08,24,6.10
2022,11,29,08,25,8.50
2022,11,29,08,26,8.50
2022,11,29,08,27,10.40
2022,11,29,08,28,8.30
2022,11,29,08,29,10.60
2022,11,29,08,30,8.70
2022,11,29,08,31,9.20
2022,11,29,08,32,11.20
2022,11,29,08,33,13.90
2022,11,29,08,34,11.70
2022,11,29,08,35,12.20
2022,11,29,08,36,13.50
2022,11,29,08,37,15.30
2022,11,29,08,38,11.90
2022,11,29,08,39,9.60
2022,11,29,08,40,11.30
2022,11,29,08,41,13.90
2022,11,29,08,42,14.70
2022,11,29,08,43,9.40
2022,11,29,08,44,12.90
2022,11,29,08,45,15.10
2022,11,29,08,46,14.70
2022,11,29,08,47,10.70
2022,11,29,08,48,4.50
2022,11,29,08,49,11.40
2022,11,29,08,50,12.80
2022,11,29,08,51,10.70
2022,11,29,08,52,7.00
2022,11,29,08,53,11.00
2022,11,29,08,54,12.70
2022,11,29,08,55,13.40
2022,11,29,08,56,11.30
2022,11,29,08,57,8.00
2022,11,29,08,58,5.00
2022,11,29,08,59,6.20
2022,11,29,09,00,9.10
2022,11,29,09,01,12.30
2022,11,29,09,02,5.70
2022,11,29,09,03,6.80
2022,11,29,09,04,9.20
2022,11,29,09,05,9.00
2022,11,29,09,06,9.10
2022,11,29,09,07,10.30
2022,11,29,09,08,9.00
2022,11,29,09,09,10.70
2022,11,29,09,10,9.20
2022,11,29,09,11,12.60
2022,11,29,09,12,9.90
2022,11,29,09,13,11.70
2022,11,29,09,14,11.60
2022,11,29,09,15,10.60
2022,11,29,09,16,13.20
2022,11,29,09,17,11.20
2022,11,29,09,18,9.20
2022,11,29,09,19,10.50
2022,11,29,09,20,11.20
2022,11,29,09,21,14.30
2022,11,29,09,22,13.10
2022,11,29,09,23,12.80
2022,11,29,09,24,10.40
2022,11,29,09,25,8.90
2022,11,29,09,26,7.90
2022,11,29,09,27,10.60
2022,11,29,09,28,9.40
2022,11,29,09,29,10.10
2022,11,29,09,30,11.70
2022,11,29,09,31,11.60
2022,11,29,09,32,11.10
2022,11,29,09,33,9.90
2022,11,29,09,34,10.60
2022,11,29,09,35,8.00
2022,11,29,09,36,8.80
2022,11,29,09,37,9.30
2022,11,29,09,38,6.00
2022,11,29,09,39,6.30
2022,11,29,09,40,9.00
2022,11,29,09,41,9.50
2022,11,29,09,42,9.70
2022,11,29,09,43,8.00
2022,11,29,09,44,7.20
2022,11,29,09,45,8.30
2022,11,29,09,46,6.90
2022,11,29,09,47,7.50
2022,11,29,09,48,5.30
2022,11,29,09,49,7.00
2022,11,29,09,50,7.30
2022,11,29,09,51,7.50
2022,11,29,09,52,7.50
2022,11,29,09,53,6.40
2022,11,29,09,54,4.30
2022,11,29,09,55,5.50
2022,11,29,09,56,6.70
2022,11,29,09,57,3.40
2022,11,29,09,58,4.30
2022,11,29,09,59,7.30
2022,11,29,10,00,6.40
2022,11,29,10,01,5.90
2022,11,29,10,02,7.00
2022,11,29,10,03,4.70
2022,11,29,10,04,4.40
2022,11,29,10,05,9.10
2022,11,29,10,06,6.00
2022,11,29,10,07,11.20
2022,11,29,10,08,14.70
2022,11,29,10,09,15.30
2022,11,29,10,10,16.30
2022,11,29,10,11,15.00
2022,11,29,10,12,12.60
2022,11,29,10,13,14.10
2022,11,29,10,14,12.50
2022,11,29,10,15,14.10
2022,11,29,10,16,15.50
2022,11,29,10,17,12.80
2022,11,29,10,18,11.60
2022,11,29,10,19,13.10
2022,11,29,10,20,11.40
2022,11,29,10,21,12.80
2022,11,29,10,22,12.70
2022,11,29,10,23,15.90
2022,11,29,10,24,14.70
2022,11,29,10,25,15.10
2022,11,29,10,26,14.70
2022,11,29,10,27,15.30
2022,11,29,10,28,15.90
2022,11,29,10,29,16.50
2022,11,29,10,30,15.00
2022,11,29,10,31,15.50
2022,11,29,10,32,15.90
2022,11,29,10,33,15.60
2022,11,29,10,34,12.00
2022,11,29,10,35,13.60
2022,11,29,10,36,14.40
2022,11,29,10,37,15.90
2022,11,29,10,38,14.80
2022,11,29,10,39,12.90
2022,11,29,10,40,15.70
2022,11,29,10,41,15.00
2022,11,29,10,42,16.80
2022,11,29,10,43,16.40
2022,11,29,10,44,16.60
2022,11,29,10,45,15.40
2022,11,29,10,46,17.30
2022,11,29,10,47,18.60
2022,11,29,10,48,18.20
2022,11,29,10,49,14.80
2022,11,29,10,50,17.30
2022,11,29,10,51,21.80
2022,11,29,10,52,21.80
2022,11,29,10,53,19.80
2022,11,29,10,54,22.50
2022,11,29,10,55,20.50
2022,11,29,10,56,17.90
2022,11,29,10,57,25.40
2022,11,29,10,58,26.70
2022,11,29,10,59,26.00
2022,11,29,11,00,24.80
2022,11,29,11,01,22.50
2022,11,29,11,02,25.00
2022,11,29,11,03,25.20
2022,11,29,11,04,22.60
2022,11,29,11,05,23.70
2022,11,29,11,06,24.50
2022,11,29,11,07,23.90
2022,11,29,11,08,24.00
2022,11,29,11,09,26.20
2022,11,29,11,10,23.40
2022,11,29,11,11,25.20
2022,11,29,11,12,25.50
2022,11,29,11,13,23.90
2022,11,29,11,14,24.40
2022,11,29,11,15,22.90
2022,11,29,11,16,20.30
2022,11,29,11,17,19.80
2022,11,29,11,18,20.50
2022,11,29,11,19,20.80
2022,11,29,11,20,20.20
2022,11,29,11,21,19.90
2022,11,29,11,22,23.60
2022,11,29,11,23,26.20
2022,11,29,11,24,22.10
2022,11,29,11,25,19.90
2022,11,29,11,26,22.60
2022,11,29,11,27,20.00
2022,11,29,11,28,25.50
2022,11,29,11,29,22.40
2022,11,29,11,30,21.30
2022,11,29,11,31,20.90
2022,11,29,11,32,24.90
2022,11,29,11,33,23.10
2022,11,29,11,34,23.80
2022,11,29,11,35,22.80
2022,11,29,11,36,19.80
2022,11,29,11,37,22.00
2022,11,29,11,38,21.70
2022,11,29,11,39,20.60
2022,11,29,11,40,21.80
2022,11,29,11,41,25.60
2022,11,29,11,42,24.60
2022,11,29,11,43,21.70
2022,11,29,11,44,24.70
2022,11,29,11,45,23.40
2022,11,29,11,46,20.60
2022,11,29,11,47,25.00
2022,11,29,11,48,22.80
2022,11,29,11,49,24.40
2022,11,29,11,50,21.60
2022,11,29,11,51,20.90
2022,11,29,11,52,22.90
2022,11,29,11,53,25.10
2022,11,29,11,54,22.50
2022,11,29,11,55,26.40
2022,11,29,11,56,26.00
2022,11,29,11,57,24.30
2022,11,29,11,58,27.10
2022,11,29,11,59,26.20
2022,11,29,12,00,27.30
2022,11,29,12,01,31.40
2022,11,29,12,02,30.20
2022,11,29,12,03,25.60
2022,11,29,12,04,27.30
2022,11,29,12,05,26.90
2022,11,29,12,06,24.80
2022,11,29,12,07,25.00
2022,11,29,12,08,29.10
2022,11,29,12,09,26.70
2022,11,29,12,10,28.60
2022,11,29,12,11,24.70
2022,11,29,12,12,26.80
2022,11,29,12,13,25.90
2022,11,29,12,14,23.30
2022,11,29,12,15,26.30
2022,11,29,12,16,23.40
2022,11,29,12,17,26.60
2022,11,29,12,18,25.80
2022,11,29,12,19,24.40
2022,11,29,12,20,28.30
2022,11,29,12,21,24.00
2022,11,29,12,22,21.70
2022,11,29,12,23,22.20
2022,11,29,12,24,26.20
2022,11,29,12,25,26.40
2022,11,29,12,26,26.40
2022,11,29,12,27,28.90
2022,11,29,12,28,26.80
2022,11,29,12,29,26.60
2022,11,29,12,30,25.90
2022,11,29,12,31,24.40
2022,11,29,12,32,26.60
2022,11,29,12,33,25.40
2022,11,29,12,34,26.50
2022,11,29,12,35,24.00
2022,11,29,12,36,20.70
2022,11,29,12,37,24.10
2022,11,29,12,38,22.00
2022,11,29,12,39,21.90
2022,11,29,12,40,25.40
2022,11,29,12,41,22.80
2022,11,29,12,42,24.00
2022,11,29,12,43,21.90
2022,11,29,12,44,23.50
2022,11,29,12,45,23.40
2022,11,29,12,46,25.40
2022,11,29,12,47,22.70
2022,11,29,12,48,23.60
2022,11,29,12,49,25.50
2022,11,29,12,50,26.60
2022,11,29,12,51,24.90
2022,11,29,12,52,22.20
2022,11,29,12,53,23.00
2022,11,29,12,54,23.10
2022,11,29,12,55,21.90
2022,11,29,12,56,26.80
2022,11,29,12,57,24.20
2022,11,29,12,58,25.60
2022,11,29,12,59,24.70
2022,11,29,13,00,25.90
2022,11,29,13,01,26.80
2022,11,29,13,02,24.50
2022,11,29,13,03,27.00
2022,11,29,13,04,27.60
2022,11,29,13,05,27.20
2022,11,29,13,06,30.60
2022,11,29,13,07,26.20
2022,11,29,13,08,26.40
2022,11,29,13,09,26.40
2022,11,29,13,10,32.50
2022,11,29,13,11,30.30
2022,11,29,13,12,31.60
2022,11,29,13,13,30.60
2022,11,29,13,14,34.10
2022,11,29,13,15,28.90
2022,11,29,13,16,27.70
2022,11,29,13,17,27.50
2022,11,29,13,18,32.60
2022,11,29,13,19,30.90
2022,11,29,13,20,29.90
2022,11,29,13,21,26.20
2022,11,29,13,22,31.70
2022,11,29,13,23,29.10
2022,11,29,13,24,33.10
2022,11,29,13,25,29.90
2022,11,29,13,26,29.20
2022,11,29,13,27,30.30
2022,11,29,13,28,26.00
2022,11,29,13,29,26.10
2022,11,29,13,30,29.00
2022,11,29,13,31,28.00
2022,11,29,13,32,25.50
2022,11,29,13,33,28.20
2022,11,29,13,34,30.70
2022,11,29,13,35,28.70
2022,11,29,13,36,27.60
2022,11,29,13,37,30.20
2022,11,29,13,38,28.90
2022,11,29,13,39,27.40
2022,11,29,13,40,26.90
2022,11,29,13,41,28.10
2022,11,29,13,42,29.30
2022,11,29,13,43,29.40
2022,11,29,13,44,25.80
2022,11,29,13,45,27.50
2022,11,29,13,46,28.60
2022,11,29,13,47,28.10
2022,11,29,13,48,30.90
2022,11,29,13,49,28.90
2022,11,29,13,50,29.30
2022,11,29,13,51,24.80
2022,11,29,13,52,28.10
2022,11,29,13,53,28.70
2022,11,29,13,54,28.10
2022,11,29,13,55,26.70
2022,11,29,13,56,27.10
2022,11,29,13,57,25.20
2022,11,29,13,58,21.70
2022,11,29,13,59,23.70
2022,11,29,14,00,26.00
2022,11,29,14,01,26.80
2022,11,29,14,02,26.80
2022,11,29,14,03,29.90
2022,11,29,14,04,29.70
2022,11,29,14,05,26.20
2022,11,29,14,06,29.80
2022,11,29,14,07,26.70
2022,11,29,14,08,30.00
2022,11,29,14,09,28.50
2022,11,29,14,10,27.80
2022,11,29,14,11,30.80
2022,11,29,14,12,27.20
2022,11,29,14,13,25.30
2022,11,29,14,14,30.10
2022,11,29,14,15,26.80
2022,11,29,14,16,29.20
2022,11,29,14,17,29.10
2022,11,29,14,18,29.10
2022,11,29,14,19,31.40
2022,11,29,14,20,29.10
2022,11,29,14,21,30.10
2022,11,29,14,22,26.30
2022,11,29,14,23,25.90
2022,11,29,14,24,27.10
2022,11,29,14,25,26.40
2022,11,29,14,26,30.10
2022,11,29,14,27,26.50
2022,11,29,14,28,29.10
2022,11,29,14,29,28.30
2022,11,29,14,30,25.70
2022,11,29,14,31,27.90
2022,11,29,14,32,28.90
2022,11,29,14,33,33.10
2022,11,29,14,34,30.40
2022,11,29,14,35,29.30
2022,11,29,14,36,26.70
2022,11,29,14,37,24.70
2022,11,29,14,38,28.40
2022,11,29,14,39,31.00
2022,11,29,14,40,30.20
2022,11,29,14,41,27.00
2022,11,29,14,42,26.90
2022,11,29,14,43,27.30
2022,11,29,14,44,33.00
2022,11,29,14,45,28.80
2022,11,29,14,46,28.10
2022,11,29,14,47,28.40
2022,11,29,14,48,27.50
2022,11,29,14,49,29.30
2022,11,29,14,50,28.50
2022,11,29,14,51,28.20
2022,11,29,14,52,24.70
2022,11,29,14,53,25.10
2022,11,29,14,54,29.40
2022,11,29,14,55,32.00
2022,11,29,14,56,29.30
2022,11,29,14,57,30.40
2022,11,29,14,58,30.70
2022,11,29,14,59,28.30
2022,11,29,15,00,33.80
2022,11,29,15,01,31.60
2022,11,29,15,02,27.30
2022,11,29,15,03,28.00
2022,11,29,15,04,26.90
2022,11,29,15,05,30.10
2022,11,29,15,06,30.60
2022,11,29,15,07,26.10
2022,11,29,15,08,31.20
2022,11,29,15,09,33.20
2022,11,29,15,10,38.00
2022,11,29,15,11,33.00
2022,11,29,15,12,31.80
2022,11,29,15,13,31.80
2022,11,29,15,14,30.50
2022,11,29,15,15,30.20
2022,11,29,15,16,29.10
2022,11,29,15,17,35.00
2022,11,29,15,18,34.70
2022,11,29,15,19,30.80
2022,11,29,15,20,33.10
2022,11,29,15,21,34.60
2022,11,29,15,22,31.60
2022,11,29,15,23,33.90
2022,11,29,15,24,31.10
2022,11,29,15,25,32.20
2022,11,29,15,26,30.40
2022,11,29,15,27,34.40
2022,11,29,15,28,34.40
2022,11,29,15,29,35.10
2022,11,29,15,30,33.80
2022,11,29,15,31,37.10
2022,11,29,15,32,33.50
2022,11,29,15,33,40.10
2022,11,29,15,34,40.50
2022,11,29,15,35,31.50
2022,11,29,15,36,34.30
2022,11,29,15,37,35.20
2022,11,29,15,38,35.80
2022,11,29,15,39,36.50
2022,11,29,15,40,31.40
2022,11,29,15,41,37.20
2022,11,29,15,42,34.90
2022,11,29,15,43,35.60
2022,11,29,15,44,36.50
2022,11,29,15,45,36.30
2022,11,29,15,46,35.20
2022,11,29,15,47,36.30
2022,11,29,15,48,42.10
2022,11,29,15,49,35.60
2022,11,29,15,50,31.30
2022,11,29,15,51,35.80
2022,11,29,15,52,37.30
2022,11,29,15,53,34.30
2022,11,29,15,54,38.50
2022,11,29,15,55,34.60
2022,11,29,15,56,32.40
2022,11,29,15,57,32.70
2022,11,29,15,58,37.90
2022,11,29,15,59,35.00
2022,11,29,16,00,41.00
2022,11,29,16,01,40.40
2022,11,29,16,02,45.10
2022,11,29,16,03,38.00
2022,11,29,16,04,36.10
2022,11,29,16,05,37.10
2022,11,29,16,06,37.60
2022,11,29,16,07,32.20
2022,11,29,16,08,33.10
2022,11,29,16,09,41.20
2022,11,29,16,10,39.90
2022,11,29,16,11,38.50
2022,11,29,16,12,37.40
2022,11,29,16,13,33.60
2022,11,29,16,14,35.30
2022,11,29,16,15,33.10
2022,11,29,16,16,32.10
2022,11,29,16,17,32.60
2022,11,29,16,18,30.80
2022,11,29,16,19,31.90
2022,11,29,16,20,36.00
2022,11,29,16,21,41.60
2022,11,29,16,22,32.00
2022,11,29,16,23,32.80
2022,11,29,16,24,36.20
2022,11,29,16,25,41.50
2022,11,29,16,26,33.20
2022,11,29,16,27,30.20
2022,11,29,16,28,35.60
2022,11,29,16,29,36.30
2022,11,29,16,30,35.60
2022,11,29,16,31,31.80
2022,11,29,16,32,35.80
2022,11,29,16,33,30.80
2022,11,29,16,34,31.20
2022,11,29,16,35,33.20
2022,11,29,16,36,35.20
2022,11,29,16,37,38.90
2022,11,29,16,38,43.90
2022,11,29,16,39,40.50
2022,11,29,16,40,39.30
2022,11,29,16,41,38.70
2022,11,29,16,42,39.00
2022,11,29,16,43,45.10
2022,11,29,16,44,39.90
2022,11,29,16,45,33.40
2022,11,29,16,46,36.10
2022,11,29,16,47,32.20
2022,11,29,16,48,37.30
2022,11,29,16,49,40.10
2022,11,29,16,50,36.70
2022,11,29,16,51,35.90
2022,11,29,16,52,42.30
2022,11,29,16,53,36.30
2022,11,29,16,54,38.90
2022,11,29,16,55,44.90
2022,11,29,16,56,41.20
2022,11,29,16,57,42.60
2022,11,29,16,58,42.70
2022,11,29,16,59,40.20
2022,11,29,17,00,38.70
2022,11,29,17,01,37.70
2022,11,29,17,02,37.30
2022,11,29,17,03,41.80
2022,11,29,17,04,38.90
2022,11,29,17,05,39.70
2022,11,29,17,06,40.60
2022,11,29,17,07,43.20
2022,11,29,17,08,45.50
2022,11,29,17,09,48.90
2022,11,29,17,10,48.60
2022,11,29,17,11,48.90
2022,11,29,17,12,46.00
2022,11,29,17,13,40.00
2022,11,29,17,14,37.80
2022,11,29,17,15,46.10
2022,11,29,17,16,45.90
2022,11,29,17,17,40.90
2022,11,29,17,18,41.40
2022,11,29,17,19,40.30
2022,11,29,17,20,40.60
2022,11,29,17,21,42.30
2022,11,29,17,22,42.10
2022,11,29,17,23,49.50
2022,11,29,17,24,48.30
2022,11,29,17,25,38.20
2022,11,29,17,26,40.10
2022,11,29,17,27,40.60
2022,11,29,17,28,41.10
2022,11,29,17,29,39.70
2022,11,29,17,30,42.10
2022,11,29,17,31,39.80
2022,11,29,17,32,39.00
2022,11,29,17,33,52.30